Overview Statistics Trail Chart Weather Telemetry Raw packets
 

This is the latest recevied weather packets stored in our database for station/object HS5XHC-1. If no packets are shown the sender has not sent any weather packets the latest 10 day(s).

<< 27 28 29 30 31 32 33 >>
Time Temp. Humidity Pressure Rain* Wind** Luminosity Snow
1777480827 27.22° C 55% 969 hPa - - 0 W/m² -
1777480203 28.89° C 51% 969 hPa - - 0 W/m² -
1777479579 28.89° C 52% 969 hPa - - 0 W/m² -
1777478955 28.33° C 51% 969 hPa - - 0 W/m² -
1777478331 28.89° C 50% 969 hPa - - 0 W/m² -
1777477707 28.89° C 51% 969 hPa - - 0 W/m² -
1777477083 28.89° C 50% 968 hPa - - 0 W/m² -
1777476459 28.89° C 50% 968 hPa - - 0 W/m² -
1777475835 28.89° C 51% 968 hPa - - 0 W/m² -
1777475211 28.89° C 50% 968 hPa - - 0 W/m² -
1777474587 28.89° C 50% 968 hPa - - 0 W/m² -
1777473963 28.33° C 51% 968 hPa - - 0 W/m² -
1777473339 27.78° C 53% 968 hPa - - 0 W/m² -
1777472714 27.78° C 54% 968 hPa - - 0 W/m² -
1777472090 28.89° C 50% 968 hPa - - 0 W/m² -
1777471466 28.89° C 51% 967 hPa - - 0 W/m² -
1777470842 27.22° C 54% 967 hPa - - 0 W/m² -
1777470218 28.89° C 49% 967 hPa - - 0 W/m² -
1777469594 28.33° C 49% 967 hPa - - 0 W/m² -
1777468970 27.78° C 49% 967 hPa - - 0 W/m² -
1777468346 28.33° C 48% 967 hPa - - 0 W/m² -
1777467722 28.89° C 47% 967 hPa - - 0 W/m² -
1777467098 29.44° C 46% 966 hPa - - 0 W/m² -
1777466474 30° C 48% 966 hPa - - 0 W/m² -
1777465850 30° C 49% 966 hPa - - 0 W/m² -

* Rain since midnight (hover to see other rain measurements)
** Current wind speed in m/s (hover to see current wind gust speed)